| time (UTC) | temp C | wind direction | speed KPH | gust KPH | rain 1hr cm | rain 24hr cm | rain mn cm | humidity % | barometer mb |
| 20260905014005 | 27 | 207 | 4.8 | 11.3 | 0.00 | 0.00 | 0.00 | 84 | 1012.9 |
| 20260905012006 | 27 | 200 | 4.8 | 4.8 | 0.00 | 0.00 | 0.00 | 84 | 1013.0 |
| 20260905011505 | 27 | 201 | 4.8 | 4.8 | 0.00 | 0.00 | 0.00 | 82 | 1013.1 |
| 20260905011005 | 27 | 249 | 3.2 | 3.2 | 0.00 | 0.00 | 0.00 | 84 | 1013.4 |
| 20260905010506 | 27 | 249 | 0.0 | 1.6 | 0.00 | 0.00 | 0.00 | 82 | 1013.5 |
| 20260905005505 | 28 | 249 | 3.2 | 3.2 | 0.00 | 0.00 | 0.00 | 83 | 1013.6 |
| 20260905005006 | 28 | 249 | 1.6 | 3.2 | 0.00 | 0.00 | 0.00 | 82 | 1013.6 |
| 20260905004505 | 28 | 249 | 0.0 | 1.6 | 0.00 | 0.00 | 0.00 | 82 | 1013.8 |
| 20260905004005 | 28 | 249 | 1.6 | 4.8 | 0.00 | 0.00 | 0.00 | 82 | 1013.9 |
| 20260905001005 | 30 | 283 | 1.6 | 3.2 | 0.00 | 0.00 | 0.00 | 76 | 1014.0 |
| 20260905000505 | 30 | 283 | 1.6 | 3.2 | 0.00 | 0.00 | 0.00 | 76 | 1014.2 |
| 20260904235505 | 30 | 275 | 1.6 | 3.2 | 0.00 | 0.00 | 0.00 | 75 | 1014.2 |
| 20260904234505 | 31 | 216 | 1.6 | 3.2 | 0.00 | 0.00 | 0.00 | 71 | 1014.1 |
| 20260904234006 | 31 | 255 | 1.6 | 3.2 | 0.00 | 0.00 | 0.00 | 71 | 1014.1 |
| 20260904233505 | 31 | 245 | 0.0 | 3.2 | 0.00 | 0.00 | 0.00 | 71 | 1014.0 |
| 20260904232506 | 31 | 245 | 0.0 | 1.6 | 0.00 | 0.00 | 0.00 | 69 | 1013.9 |
| 20260904230005 | 32 | 235 | 3.2 | 8.0 | 0.00 | 0.00 | 0.00 | 66 | 1013.9 |
| 20260904225005 | 32 | 253 | 4.8 | 11.3 | 0.00 | 0.00 | 0.00 | 64 | 1014.0 |
| 20260904224505 | 33 | 237 | 4.8 | 8.0 | 0.00 | 0.00 | 0.00 | 63 | 1013.9 |
| 20260904224005 | 33 | 223 | 6.4 | 8.0 | 0.00 | 0.00 | 0.00 | 62 | 1013.9 |
| 20260904223505 | 33 | 212 | 3.2 | 12.9 | 0.00 | 0.00 | 0.00 | 63 | 1013.5 |
| 20260904223006 | 33 | 207 | 8.0 | 11.3 | 0.00 | 0.00 | 0.00 | 62 | 1013.4 |
| 20260904222505 | 33 | 189 | 9.7 | 16.1 | 0.00 | 0.00 | 0.00 | 60 | 1013.4 |
| 20260904221506 | 33 | 190 | 8.0 | 19.3 | 0.00 | 0.00 | 0.00 | 60 | 1013.1 |
| 20260904220005 | 33 | 196 | 14.5 | 20.9 | 0.00 | 0.00 | 0.00 | 59 | 1013.2 |
| 20260904215005 | 34 | 207 | 11.3 | 16.1 | 0.00 | 0.00 | 0.00 | 59 | 1013.0 |
| 20260904214505 | 34 | 190 | 12.9 | 19.3 | 0.00 | 0.00 | 0.00 | 58 | 1013.0 |
| 20260904213005 | 34 | 192 | 14.5 | 22.5 | 0.00 | 0.00 | 0.00 | 56 | 1013.1 |
| 20260904212505 | 34 | 186 | 16.1 | 24.1 | 0.00 | 0.00 | 0.00 | 56 | 1013.1 |
| 20260904212005 | 35 | 199 | 14.5 | 20.9 | 0.00 | 0.00 | 0.00 | 59 | 1013.0 |
| 20260904211505 | 34 | 177 | 14.5 | 22.5 | 0.00 | 0.00 | 0.00 | 57 | 1013.0 |
| 20260904211005 | 35 | 180 | 16.1 | 22.5 | 0.00 | 0.00 | 0.00 | 57 | 1012.8 |
| 20260904205504 | 35 | 191 | 12.9 | 24.1 | 0.00 | 0.00 | 0.00 | 57 | 1012.8 |
| 20260904204005 | 35 | 188 | 14.5 | 20.9 | 0.00 | 0.00 | 0.00 | 55 | 1012.8 |
| 20260904203005 | 35 | 186 | 14.5 | 27.4 | 0.00 | 0.00 | 0.00 | 56 | 1012.9 |
| 20260904201505 | 35 | 174 | 14.5 | 22.5 | 0.00 | 0.00 | 0.00 | 55 | 1013.2 |
| 20260904200505 | 35 | 193 | 9.7 | 22.5 | 0.00 | 0.00 | 0.00 | 55 | 1013.4 |
| 20260904200005 | 35 | 206 | 11.3 | 24.1 | 0.00 | 0.00 | 0.00 | 54 | 1013.4 |
| 20260904195005 | 35 | 183 | 14.5 | 24.1 | 0.00 | 0.00 | 0.00 | 55 | 1013.4 |
| 20260904192005 | 33 | 214 | 9.7 | 14.5 | 0.00 | 0.00 | 0.00 | 59 | 1014.0 |
| 20260904191505 | 33 | 193 | 9.7 | 16.1 | 0.00 | 0.00 | 0.00 | 61 | 1014.1 |
| 20260904190005 | 33 | 198 | 8.0 | 12.9 | 0.00 | 0.00 | 0.00 | 60 | 1014.2 |
| 20260904185005 | 33 | 214 | 8.0 | 12.9 | 0.00 | 0.00 | 0.00 | 59 | 1014.4 |
| 20260904183505 | 33 | 216 | 4.8 | 12.9 | 0.00 | 0.00 | 0.00 | 61 | 1014.5 |
| 20260904182505 | 32 | 213 | 11.3 | 16.1 | 0.00 | 0.00 | 0.00 | 59 | 1014.6 |
| 20260904175505 | 33 | 216 | 11.3 | 19.3 | 0.00 | 0.00 | 0.00 | 59 | 1014.6 |
| 20260904174505 | 33 | 207 | 12.9 | 19.3 | 0.00 | 0.00 | 0.00 | 57 | 1014.6 |
| 20260904173505 | 35 | 186 | 8.0 | 16.1 | 0.00 | 0.00 | 0.00 | 58 | 1014.6 |
| 20260904172505 | 33 | 221 | 9.7 | 14.5 | 0.00 | 0.00 | 0.00 | 59 | 1014.6 |
| 20260904172004 | 33 | 214 | 11.3 | 16.1 | 0.00 | 0.00 | 0.00 | 59 | 1014.6 |
| 20260904171504 | 33 | 241 | 11.3 | 19.3 | 0.00 | 0.00 | 0.00 | 57 | 1014.6 |
| 20260904171005 | 35 | 223 | 9.7 | 16.1 | 0.00 | 0.00 | 0.00 | 56 | 1014.7 |
| 20260904170505 | 35 | 245 | 12.9 | 22.5 | 0.00 | 0.00 | 0.00 | 57 | 1014.7 |
| 20260904165504 | 34 | 223 | 12.9 | 24.1 | 0.00 | 0.00 | 0.00 | 56 | 1014.9 |
| 20260904164504 | 33 | 231 | 11.3 | 19.3 | 0.00 | 0.00 | 0.00 | 59 | 1014.8 |
| 20260904162004 | 34 | 250 | 9.7 | 14.5 | 0.00 | 0.00 | 0.00 | 59 | 1015.0 |
| 20260904161005 | 33 | 246 | 6.4 | 19.3 | 0.00 | 0.00 | 0.00 | 62 | 1014.9 |
| 20260904160504 | 32 | 230 | 9.7 | 16.1 | 0.00 | 0.00 | 0.00 | 62 | 1014.9 |
| 20260904160005 | 32 | 218 | 11.3 | 16.1 | 0.00 | 0.00 | 0.00 | 62 | 1014.9 |
| 20260904155504 | 32 | 244 | 4.8 | 12.9 | 0.00 | 0.00 | 0.00 | 63 | 1014.9 |
| 20260904155005 | 32 | 247 | 4.8 | 12.9 | 0.00 | 0.00 | 0.00 | 65 | 1014.8 |
| 20260904152504 | 32 | 239 | 8.0 | 14.5 | 0.00 | 0.00 | 0.00 | 65 | 1015.0 |
| 20260904151504 | 31 | 273 | 9.7 | 19.3 | 0.00 | 0.00 | 0.00 | 67 | 1014.9 |
| 20260904144005 | 30 | 238 | 8.0 | 12.9 | 0.00 | 0.00 | 0.00 | 71 | 1014.7 |
| 20260904142004 | 28 | 220 | 4.8 | 11.3 | 0.00 | 0.00 | 0.00 | 77 | 1014.5 |
| 20260904140505 | 28 | 232 | 4.8 | 8.0 | 0.00 | 0.00 | 0.00 | 79 | 1014.5 |
| 20260904135004 | 27 | 224 | 3.2 | 8.0 | 0.00 | 0.00 | 0.00 | 82 | 1014.4 |
| 20260904134005 | 26 | 204 | 4.8 | 8.0 | 0.00 | 0.00 | 0.00 | 83 | 1014.4 |
| 20260904133504 | 26 | 222 | 4.8 | 4.8 | 0.00 | 0.00 | 0.00 | 84 | 1014.4 |
| 20260904132005 | 25 | 174 | 1.6 | 3.2 | 0.00 | 0.00 | 0.00 | 85 | 1014.4 |
| 20260904131504 | 25 | 225 | 1.6 | 3.2 | 0.00 | 0.00 | 0.00 | 86 | 1014.4 |
| 20260904131005 | 25 | 253 | 0.0 | 3.2 | 0.00 | 0.00 | 0.00 | 86 | 1014.4 |
| 20260904125506 | 24 | 199 | 3.2 | 4.8 | 0.00 | 0.00 | 0.00 | 89 | 1014.3 |
| 20260904123005 | 23 | 165 | 1.6 | 4.8 | 0.00 | 0.00 | 0.00 | 91 | 1014.1 |
| 20260904122504 | 23 | 209 | 1.6 | 3.2 | 0.00 | 0.00 | 0.00 | 91 | 1014.0 |
| 20260904122004 | 22 | 213 | 3.2 | 4.8 | 0.00 | 0.00 | 0.00 | 92 | 1013.9 |
| 20260904121004 | 22 | 209 | 3.2 | 3.2 | 0.00 | 0.00 | 0.00 | 93 | 1013.9 |
| 20260904120004 | 22 | 209 | 3.2 | 3.2 | 0.00 | 0.00 | 0.00 | 92 | 1013.9 |
| 20260904114504 | 22 | 209 | 3.2 | 4.8 | 0.00 | 0.00 | 0.00 | 93 | 1013.8 |
| 20260904112505 | 22 | 198 | 3.2 | 4.8 | 0.00 | 0.00 | 0.00 | 94 | 1013.6 |
| 20260904111005 | 22 | 181 | 3.2 | 3.2 | 0.00 | 0.00 | 0.00 | 94 | 1013.4 |
| 20260904110504 | 22 | 152 | 3.2 | 3.2 | 0.00 | 0.00 | 0.00 | 94 | 1013.5 |
| 20260904105504 | 22 | 144 | 1.6 | 3.2 | 0.00 | 0.00 | 0.00 | 94 | 1013.4 |
| 20260904105004 | 22 | 144 | 1.6 | 3.2 | 0.00 | 0.00 | 0.00 | 93 | 1013.4 |
| 20260904104005 | 22 | 144 | 1.6 | 1.6 | 0.00 | 0.00 | 0.00 | 93 | 1013.5 |
| 20260904103504 | 22 | 143 | 1.6 | 1.6 | 0.00 | 0.00 | 0.00 | 93 | 1013.5 |
| 20260904103005 | 22 | 144 | 0.0 | 1.6 | 0.00 | 0.00 | 0.00 | 94 | 1013.6 |
| 20260904102504 | 22 | 144 | 0.0 | 3.2 | 0.00 | 0.00 | 0.00 | 94 | 1013.6 |
| 20260904102004 | 22 | 144 | 1.6 | 1.6 | 0.00 | 0.00 | 0.00 | 93 | 1013.6 |
| 20260904101004 | 22 | 144 | 1.6 | 3.2 | 0.00 | 0.00 | 0.00 | 93 | 1013.6 |
| 20260904095504 | 22 | 159 | 3.2 | 3.2 | 0.00 | 0.00 | 0.00 | 93 | 1013.7 |
| 20260904095004 | 22 | 157 | 3.2 | 3.2 | 0.00 | 0.00 | 0.00 | 93 | 1013.7 |
| 20260904093504 | 22 | 159 | 1.6 | 3.2 | 0.00 | 0.00 | 0.00 | 92 | 1013.6 |
| 20260904093004 | 22 | 159 | 1.6 | 3.2 | 0.00 | 0.00 | 0.00 | 93 | 1013.7 |
| 20260904092004 | 22 | 159 | 0.0 | 3.2 | 0.00 | 0.00 | 0.00 | 93 | 1013.6 |
| 20260904091504 | 22 | 159 | 1.6 | 1.6 | 0.00 | 0.00 | 0.00 | 92 | 1013.6 |
| 20260904090004 | 23 | 159 | 1.6 | 3.2 | 0.00 | 0.00 | 0.00 | 92 | 1013.3 |
| 20260904085504 | 23 | 159 | 3.2 | 4.8 | 0.00 | 0.00 | 0.00 | 92 | 1013.3 |
| 20260904085004 | 23 | 182 | 3.2 | 3.2 | 0.00 | 0.00 | 0.00 | 92 | 1013.2 |
| 20260904084503 | 23 | 182 | 1.6 | 3.2 | 0.00 | 0.00 | 0.00 | 92 | 1013.0 |
| 20260904084004 | 23 | 182 | 0.0 | 1.6 | 0.00 | 0.00 | 0.00 | 92 | 1013.0 |
| 20260904083504 | 23 | 182 | 1.6 | 4.8 | 0.00 | 0.00 | 0.00 | 92 | 1012.9 |
| 20260904083004 | 23 | 198 | 1.6 | 3.2 | 0.00 | 0.00 | 0.00 | 92 | 1012.9 |
| 20260904082504 | 23 | 198 | 1.6 | 3.2 | 0.00 | 0.00 | 0.00 | 91 | 1012.8 |
| 20260904081004 | 23 | 186 | 3.2 | 4.8 | 0.00 | 0.00 | 0.00 | 91 | 1012.8 |
| 20260904080503 | 23 | 179 | 3.2 | 4.8 | 0.00 | 0.00 | 0.00 | 92 | 1012.9 |
| 20260904080004 | 23 | 173 | 3.2 | 8.0 | 0.00 | 0.00 | 0.00 | 92 | 1012.9 |
| 20260904075004 | 23 | 170 | 3.2 | 4.8 | 0.00 | 0.00 | 0.00 | 92 | 1012.9 |
| 20260904074504 | 23 | 171 | 3.2 | 4.8 | 0.00 | 0.00 | 0.00 | 92 | 1012.9 |
| 20260904074004 | 23 | 162 | 3.2 | 4.8 | 0.00 | 0.00 | 0.00 | 91 | 1013.0 |
| 20260904072504 | 23 | 166 | 4.8 | 4.8 | 0.00 | 0.00 | 0.00 | 91 | 1013.1 |
| 20260904071004 | 23 | 155 | 3.2 | 4.8 | 0.00 | 0.00 | 0.00 | 91 | 1013.3 |
| 20260904070504 | 23 | 155 | 3.2 | 4.8 | 0.00 | 0.00 | 0.00 | 91 | 1013.4 |
| 20260904065504 | 23 | 155 | 3.2 | 4.8 | 0.00 | 0.00 | 0.00 | 92 | 1013.5 |
| 20260904065004 | 23 | 155 | 3.2 | 4.8 | 0.00 | 0.00 | 0.00 | 92 | 1013.5 |
| 20260904063003 | 24 | 155 | 3.2 | 4.8 | 0.00 | 0.00 | 0.00 | 91 | 1013.7 |
| 20260904061004 | 24 | 186 | 1.6 | 3.2 | 0.00 | 0.00 | 0.00 | 90 | 1013.8 |
| 20260904060504 | 24 | 186 | 0.0 | 3.2 | 0.00 | 0.00 | 0.00 | 90 | 1013.8 |
| 20260904060004 | 24 | 186 | 0.0 | 3.2 | 0.00 | 0.00 | 0.00 | 90 | 1013.8 |
| 20260904055003 | 25 | 186 | 1.6 | 3.2 | 0.00 | 0.00 | 0.00 | 90 | 1013.8 |
| 20260904054004 | 25 | 178 | 1.6 | 4.8 | 0.00 | 0.00 | 0.00 | 89 | 1013.8 |
| 20260904053504 | 25 | 176 | 1.6 | 4.8 | 0.00 | 0.00 | 0.00 | 89 | 1013.8 |
| 20260904052503 | 25 | 161 | 3.2 | 4.8 | 0.00 | 0.00 | 0.00 | 89 | 1013.8 |
| 20260904050504 | 25 | 155 | 3.2 | 4.8 | 0.00 | 0.00 | 0.00 | 89 | 1013.5 |
| 20260904044503 | 25 | 147 | 4.8 | 8.0 | 0.00 | 0.00 | 0.00 | 88 | 1013.7 |
| 20260904043006 | 25 | 140 | 6.4 | 8.0 | 0.00 | 0.00 | 0.00 | 88 | 1013.7 |
| 20260904042006 | 25 | 142 | 4.8 | 8.0 | 0.00 | 0.00 | 0.00 | 87 | 1013.7 |
| 20260904041006 | 26 | 149 | 4.8 | 8.0 | 0.00 | 0.00 | 0.00 | 87 | 1013.8 |
| 20260904040505 | 26 | 150 | 4.8 | 8.0 | 0.00 | 0.00 | 0.00 | 87 | 1013.8 |
| 20260904040006 | 26 | 141 | 3.2 | 4.8 | 0.00 | 0.00 | 0.00 | 86 | 1013.7 |
| 20260904035505 | 26 | 135 | 4.8 | 4.8 | 0.00 | 0.00 | 0.00 | 86 | 1013.7 |
| 20260904035006 | 26 | 145 | 3.2 | 4.8 | 0.00 | 0.00 | 0.00 | 86 | 1013.7 |
| 20260904034505 | 26 | 143 | 4.8 | 4.8 | 0.00 | 0.00 | 0.00 | 86 | 1013.8 |
| 20260904033005 | 26 | 150 | 3.2 | 8.0 | 0.00 | 0.00 | 0.00 | 84 | 1013.7 |
| 20260904032506 | 26 | 146 | 4.8 | 8.0 | 0.00 | 0.00 | 0.00 | 84 | 1013.7 |
| 20260904031506 | 27 | 148 | 4.8 | 9.7 | 0.00 | 0.00 | 0.00 | 83 | 1013.5 |
| 20260904031006 | 27 | 158 | 6.4 | 9.7 | 0.00 | 0.00 | 0.00 | 83 | 1013.4 |
| 20260904030506 | 27 | 148 | 6.4 | 9.7 | 0.00 | 0.00 | 0.00 | 83 | 1013.4 |
| 20260904025005 | 27 | 154 | 8.0 | 11.3 | 0.00 | 0.00 | 0.00 | 82 | 1013.2 |
| 20260904024505 | 27 | 143 | 8.0 | 12.9 | 0.00 | 0.00 | 0.00 | 82 | 1013.2 |
| 20260904024006 | 27 | 143 | 8.0 | 12.9 | 0.00 | 0.00 | 0.00 | 82 | 1013.2 |
| 20260904022505 | 27 | 142 | 9.7 | 14.5 | 0.00 | 0.00 | 0.00 | 83 | 1013.1 |
| 20260904022005 | 27 | 146 | 8.0 | 12.9 | 0.00 | 0.00 | 0.00 | 84 | 1013.0 |
| 20260904020006 | 26 | 123 | 4.8 | 4.8 | 0.00 | 0.00 | 0.00 | 86 | 1013.0 |
| 20260904015506 | 26 | 114 | 4.8 | 4.8 | 0.00 | 0.00 | 0.00 | 86 | 1013.1 |
| 20260904015006 | 26 | 112 | 3.2 | 4.8 | 0.00 | 0.00 | 0.00 | 84 | 1013.0 |